Kilimanjaro, Tanzania

2:54 PM EAT on February 25, 2018 (GMT +0300)
Kilimanjaro

Weather History for HTKJ - November, 2013

Change the Weather History Date:

Thursday, November 28, 2013

  Actual Average Record
Temperature  
Mean Temperature 78 °F -  
Max Temperature 89 °F - - ()
Min Temperature 66 °F - - ()
Cooling Degree Days 12    
Growing Degree Days 28 (Base 50)    
Moisture  
Dew Point 63 °F    
Average Humidity 63    
Maximum Humidity 88    
Minimum Humidity 31    
Precipitation  
Precipitation 0.00 in - - ()
Sea Level Pressure  
Sea Level Pressure 29.98 in    
Wind  
Wind Speed 10 mph ()    
Max Wind Speed 21 mph    
Max Gust Speed -    
Visibility 9.6 miles    
Events Rain    
T = Trace of Precipitation, MM = Missing Value Source: Averaged Metar Reports

Daily Weather History Graph

Daily Weather History Graph

Search for Another Location

Airport or City:

Trip Planner

Search our weather history database for the weather conditions in past years. The results will help you decide how hot, cold, wet, or windy it might be!

Date:

Astronomy

Nov. 28, 2013 Rise Set
Actual Time 6:10 AM EAT 6:28 PM EAT
Civil Twilight 5:48 AM EAT 6:51 PM EAT
Nautical Twilight 5:22 AM EAT 7:17 PM EAT
Astronomical Twilight 4:56 AM EAT 7:43 PM EAT
Moon 2:00 AM EAT (11/28) 2:25 PM EAT (11/28)
Length of Visible Light 13h 02m
Length of Day
12h 18m
Waning Crescent, 25% of the Moon is Illuminated
Nov 28
Waning Crescent
Dec 3
New
Dec 9
First Quarter
Dec 17
Full
Dec 25
Last Quarter

Hourly Weather History & Observations

Time (EAT) Temp. Heat Index Dew Point Humidity Pressure Visibility Wind Dir Wind Speed Gust Speed Precip Events Conditions
1:00 AM 71.6 °F - 66.2 °F 83% 30.01 in 6.2 mi East 12.7 mph - N/A   Scattered Clouds
2:00 AM 69.8 °F - 64.4 °F 83% 30.01 in 6.2 mi ESE 11.5 mph - N/A   Mostly Cloudy
3:00 AM 68 °F - 64 °F 82%  in 19 mi East 17.3 mph - -   Mostly Cloudy
3:00 AM 68.0 °F - 64.4 °F 88% 30.01 in 6.2 mi East 17.3 mph - N/A   Mostly Cloudy
4:00 AM 68 °F - 65 °F 88%  in 19 mi Calm Calm - -   Mostly Cloudy
4:00 AM 68.0 °F - 64.4 °F 88% 30.01 in 6.2 mi East 9.2 mph - N/A Rain Light Rain
5:00 AM 68.0 °F - 64.4 °F 88% 30.04 in 6.2 mi East 11.5 mph - N/A   Mostly Cloudy
6:00 AM 68 °F - 65 °F 88%  in 19 mi Calm Calm - -   Mostly Cloudy
8:00 AM 71.6 °F - 64.4 °F 78% 30.06 in 6.2 mi ENE 5.8 mph - N/A   Scattered Clouds
9:00 AM 74 °F - 64 °F 65%  in 19 mi East 5.8 mph - -   Partly Cloudy
9:00 AM 73.4 °F - 64.4 °F 73% 30.09 in 6.2 mi East 5.8 mph - N/A   Scattered Clouds
11:00 AM 82.4 °F 83.4 °F 62.6 °F 51% 30.06 in 6.2 mi ESE 8.1 mph - N/A   Scattered Clouds
12:00 PM 86.0 °F 86.1 °F 60.8 °F 43% 30.04 in 6.2 mi SE 12.7 mph - N/A   Scattered Clouds
2:00 PM 87.8 °F 88.5 °F 62.6 °F 43% 29.92 in 6.2 mi SE 16.1 mph - N/A   Scattered Clouds
3:00 PM 86 °F - 74 °F 61% 29.87 in 19 mi ENE 17.3 mph - -   Partly Cloudy
3:00 PM 89.6 °F 90.1 °F 62.6 °F 40% 29.92 in 6.2 mi ESE 19.6 mph - N/A   Scattered Clouds
4:00 PM 89.6 °F 89.5 °F 60.8 °F 38% 29.92 in 6.2 mi ESE 13.8 mph - N/A   Scattered Clouds
5:00 PM 87.8 °F 87.1 °F 59.0 °F 38% 29.92 in 6.2 mi ESE 15.0 mph - N/A   Scattered Clouds
6:00 PM 85 °F - 59 °F 31%  in 19 mi ESE 17.3 mph - -   Partly Cloudy
6:00 PM 86.0 °F 85.4 °F 59.0 °F 40% 29.92 in 6.2 mi ESE 17.3 mph - N/A   Scattered Clouds
7:00 PM 82.4 °F 82.5 °F 59.0 °F 45% 29.95 in 6.2 mi East 20.7 mph - N/A   Scattered Clouds
8:00 PM 78.8 °F - 60.8 °F 54% 29.95 in 6.2 mi ESE 11.5 mph - N/A   Partly Cloudy
9:00 PM 77 °F - 62 °F 49%  in 19 mi East 8.1 mph - -   Partly Cloudy
9:00 PM 77.0 °F - 60.8 °F 57% 29.98 in 6.2 mi East 8.1 mph - N/A   Partly Cloudy
10:00 PM 75.2 °F - 60.8 °F 61% 29.98 in 6.2 mi East 9.2 mph - N/A   Partly Cloudy
11:00 PM 73.4 °F - 64.4 °F 73% 29.98 in 6.2 mi East 18.4 mph - N/A   Partly Cloudy